Location: Julian California
(33.0790°N, 116.6010°W)
Time: 13:40:34
(UTC-07:00)

Cosmos 2219 - Pass Details

Date: 12 July 2018
Orbit: 834 x 859 km, 71.1° (Epoch: 22 July)

Event Time Altitude Azimuth Distance (km) Brightness Sun altitude
Rises 23:00:21 0° 340° (NNW) 3,388 7.5 -29.0°
Reaches altitude 10° 23:02:48 10° 342° (NNW) 2,449 6.5 -29.2°
Enters shadow 23:07:47 70° 5° (N) 886 3.3 -29.7°
